Location: Wildlife_Club
(35.6000°N, 81.4330°W)
Time: 11:19:35
(UTC-04:00)

A-11 Canister half - Pass Details

Date: 26 June 2019
Orbit: 1514 x 1686 km, 47.2° (Epoch: 21 August)

Event Time Altitude Azimuth Distance (km) Brightness Sun altitude
Rises 11:49:29 0° 257° (WSW) 4,920 11.4 65.3°
Reaches altitude 10° 11:52:47 10° 261° (W) 3,920 11.0 65.9°
Maximum altitude 12:02:36 55° 338° (NNW) 1,905 10.2 67.7°
Drops below altitude 10° 12:12:07 10° 55° (NE) 3,802 11.3 69.4°
Sets 12:15:17 0° 60° (ENE) 4,764 11.7 69.9°
